K7UHP Weather Reports


time (UTC)temp
F
wind
direction
speed
knots
gust
knots
rain 1hr
in
rain 24hr
in
rain mn
in
humidity
%
barometer
mb
20260505052307 63 166 7.0 8.7 0.00 0.00 0.00 45 1009.5
20260505051306 64 126 4.3 7.0 0.00 0.00 0.00 43 1009.3
20260505050306 64 127 2.6 5.2 0.00 0.00 0.00 41 1009.3
20260505041302 66 176 6.1 6.1 0.00 0.00 0.00 37 1008.9
20260505040301 66 159 4.3 6.1 0.00 0.00 0.00 35 1008.7
20260505035300 67 134 0.9 2.6 0.00 0.00 0.00 34 1008.5
20260505034300 67 134 1.7 2.6 0.00 0.00 0.00 33 1008.4
20260505033259 67 141 1.7 1.7 0.00 0.00 0.00 33 1008.2
20260505032258 68 108 1.7 2.6 0.00 0.00 0.00 32 1008.0
20260505031257 68 129 2.6 6.1 0.00 0.00 0.00 31 1007.9
20260505030256 69 145 1.7 5.2 0.00 0.00 0.00 29 1007.8
20260505025256 69 138 5.2 5.2 0.00 0.00 0.00 29 1007.7
20260505024255 69 126 1.7 2.6 0.00 0.00 0.00 28 1007.5
20260505023254 70 135 1.7 5.2 0.00 0.00 0.00 27 1007.4
20260505022253 71 142 4.3 5.2 0.00 0.00 0.00 26 1007.3
20260505021253 72 135 1.7 4.3 0.00 0.00 0.00 26 1007.3
20260505020252 72 151 1.7 2.6 0.00 0.00 0.00 27 1007.3
20260505015251 73 172 2.6 5.2 0.00 0.00 0.00 26 1007.3
20260505014250 74 218 0.0 1.7 0.00 0.00 0.00 25 1007.3
20260505013250 73 110 1.7 2.6 0.00 0.00 0.00 25 1007.3
20260505012249 73 152 1.7 2.6 0.00 0.00 0.00 26 1007.3
20260505011248 73 139 0.9 1.7 0.00 0.00 0.00 26 1007.3
20260505010247 73 182 0.9 2.6 0.00 0.00 0.00 26 1007.5
20260505005246 72 136 0.9 2.6 0.00 0.00 0.00 26 1007.5
20260505004245 72 227 0.9 1.7 0.00 0.00 0.00 26 1007.6
20260505003245 72 134 0.9 2.6 0.00 0.00 0.00 27 1007.6
20260505002244 72 100 1.7 2.6 0.00 0.00 0.00 27 1007.8
20260505001243 72 167 2.6 4.3 0.00 0.00 0.00 27 1007.8
20260505000243 72 121 7.0 10.4 0.00 0.00 0.00 27 1007.9
20260504235213 72 87 7.8 12.2 0.00 0.00 0.00 27 1007.9
20260504234143 72 99 7.0 10.4 0.00 0.00 0.00 29 1008.0
20260504233143 71 103 8.7 13.0 0.00 0.00 0.00 30 1008.0
20260504232112 70 102 11.3 17.4 0.00 0.00 0.00 30 1008.2
20260504231112 70 91 13.0 15.6 0.00 0.00 0.00 30 1008.3
20260504230112 72 129 11.3 20.0 0.00 0.00 0.00 29 1008.3
20260504225042 74 161 5.2 8.7 0.00 0.00 0.00 25 1008.3
20260504224042 73 263 7.0 8.7 0.00 0.00 0.00 25 1008.1
20260504223042 74 263 10.4 13.9 0.00 0.00 0.00 26 1008.0
20260504222042 73 268 7.8 10.4 0.00 0.00 0.00 28 1007.9
20260504221042 73 270 8.7 13.9 0.00 0.00 0.00 29 1007.9
20260504220012 74 298 7.8 13.9 0.00 0.00 0.00 25 1007.9
20260504215012 74 291 5.2 5.2 0.00 0.00 0.00 24 1007.9
20260504214012 74 217 1.7 2.6 0.00 0.00 0.00 23 1008.0
20260504213012 75 266 5.2 8.7 0.00 0.00 0.00 23 1008.2
20260504212011 75 265 6.1 6.1 0.00 0.00 0.00 24 1008.3
20260504211010 75 284 5.2 10.4 0.00 0.00 0.00 25 1008.4
20260504210010 74 222 4.3 6.1 0.00 0.00 0.00 25 1008.5
20260504204940 74 297 2.6 5.2 0.00 0.00 0.00 24 1008.5
20260504203910 74 291 6.1 10.4 0.00 0.00 0.00 25 1008.7
20260504202910 74 11 4.3 5.2 0.00 0.00 0.00 24 1008.9
20260504201840 74 255 0.0 0.9 0.00 0.00 0.00 25 1008.8
20260504200840 74 298 0.9 4.3 0.00 0.00 0.00 24 1008.9
20260504195840 73 245 4.3 5.2 0.00 0.00 0.00 26 1009.0
20260504194810 73 295 1.7 5.2 0.00 0.00 0.00 26 1009.0
20260504193810 73 293 5.2 7.8 0.00 0.00 0.00 27 1009.1
20260504192810 72 289 2.6 6.1 0.00 0.00 0.00 27 1009.3
20260504191810 72 303 2.6 6.1 0.00 0.00 0.00 26 1009.3
20260504190810 73 302 4.3 5.2 0.00 0.00 0.00 26 1009.4
20260504185740 73 287 4.3 6.1 0.00 0.00 0.00 25 1009.6
20260504184740 72 277 6.1 10.4 0.00 0.00 0.00 26 1009.6
20260504183740 72 286 5.2 7.8 0.00 0.00 0.00 26 1009.7
20260504182739 72 288 6.1 7.8 0.00 0.00 0.00 27 1009.9
20260504181739 72 314 5.2 6.1 0.00 0.00 0.00 26 1009.9
20260504180738 72 329 4.3 5.2 0.00 0.00 0.00 27 1010.0
20260504175737 72 296 1.7 5.2 0.00 0.00 0.00 27 1010.1
20260504174737 71 83 5.2 5.2 0.00 0.00 0.00 28 1010.2
20260504173737 71 35 0.9 2.6 0.00 0.00 0.00 29 1010.2
20260504172737 71 242 4.3 4.3 0.00 0.00 0.00 29 1010.4
20260504171737 70 223 1.7 2.6 0.00 0.00 0.00 29 1010.4
20260504170707 71 240 2.6 4.3 0.00 0.00 0.00 31 1010.4
20260504150537 65 287 2.6 2.6 0.00 0.00 0.00 41 1011.0
20260504140532 65 61 0.0 0.0 0.00 0.00 0.00 35 1011.0
20260504130527 61 120 2.6 5.2 0.00 0.00 0.00 39 1011.0
20260504110518 59 128 1.7 2.6 0.00 0.00 0.00 37 1011.0
20260504100513 58 307 1.7 2.6 0.00 0.00 0.00 50 1010.7
20260504081504 58 105 0.0 0.0 0.00 0.00 0.00 39 1009.7
20260504080503 58 100 1.7 2.6 0.00 0.00 0.00 38 1009.9